Tracking 23752 objects as of 24-Oct-2021
HD Live streaming from Space Station
objects crossing your sky now

BREEZE-M DEB

Track BREEZE-M DEB now!
10-day predictions


NORAD ID: 38629
Int'l Code: 2008-011CC
Perigee: 649.5 km
Apogee: 19,100.7 km
Inclination: 49.9 °
Period: 343.5 minutes
Semi major axis: 16246 km
RCS: 0.1148 m2 (medium)
Launch date: March 14, 2008
Source: Commonwealth of Independent States (former USSR) (CIS)
Launch site: TYURATAM MISSILE AND SPACE COMPLEX (TTMTR)

Note: This is SATELLITE DEBRIS
aabbcc
Your satellite tracking list
Your tracking list is empty




NASA's NSSDC Master Catalog

Two Line Element Set (TLE):
1 38629U 08011CC  21296.41344645  .00001917  00000-0  12695-1 0  9991
2 38629  49.8572 124.4452 5678680 345.5211   3.3291  4.19256454 72195
Source of the keplerian elements: AFSPC